Theta_e
318 318 319 321 323 324 325 326 327 326 327 327 326 326 327 327 324 317 310 317 320 330 325 315 312 315 313 310 315 311 300 299 302 300 301 304 304 305 310 308 312 315 314 318 323
319 318 318 319 321 323 324 325 326 326 326 326 326 326 326 325 315 311 321 329 329 328 314 311 307 312 303 308 312 303 298 300 306 304 303 304 305 306 308 310 311 316 321 322 323
318 319 319 319 319 321 322 325 324 325 326 326 325 325 326 321 303 300 326 327 330 328 315 313 312 309 302 305 308 306 297 302 306 307 307 305 304 306 306 305 309 311 315 319 320
318 319 318 319 319 320 321 322 323 324 324 325 324 324 324 316 285 311 328 331 328 323 313 310 308 303 298 299 304 302 306 306 309 308 306 304 306 304 305 307 310 313 318 319 319
316 317 318 319 319 318 320 321 322 323 323 324 324 324 318 306 305 316 325 324 319 314 311 307 304 302 296 297 300 301 303 306 306 307 307 306 305 304 305 308 315 313 319 319 321
315 315 316 317 318 318 319 320 320 321 322 323 324 324 310 296 312 316 319 317 315 313 310 309 305 304 299 297 298 298 302 301 303 305 306 305 305 306 309 309 310 315 316 319 321
314 314 315 316 317 318 318 318 319 320 321 321 323 317 308 302 316 318 318 315 315 313 309 310 310 305 302 298 301 301 297 299 300 301 302 306 300 302 308 308 307 312 315 317 319
314 314 314 315 316 317 317 318 317 318 318 320 320 315 301 312 315 313 315 315 317 316 313 313 312 308 302 303 301 297 295 290 296 301 302 302 292 298 305 306 307 307 312 315 318
313 313 314 315 315 316 317 317 317 316 317 318 313 309 300 312 306 312 314 312 315 315 315 317 311 304 303 296 292 292 286 289 292 299 300 299 294 300 301 303 305 305 307 308 312
311 312 313 314 314 314 315 315 314 311 312 312 311 302 304 299 306 309 312 315 311 311 310 308 303 297 295 292 284 287 287 289 288 292 296 296 296 298 299 299 301 303 304 304 306
310 310 312 314 314 313 310 303 296 297 300 297 299 301 300 304 309 307 311 311 310 306 298 303 296 292 295 293 290 291 289 287 290 294 294 293 294 298 301 299 300 300 300 301 302
309 309 310 313 313 312 306 296 295 297 289 299 300 302 304 306 299 303 313 305 303 296 299 299 293 295 297 297 293 290 289 287 291 293 292 291 290 294 296 296 300 301 302 302 302
308 309 310 312 313 309 302 298 304 303 290 293 296 298 303 304 298 299 308 304 299 296 296 292 292 298 297 295 294 290 288 287 287 291 291 289 289 291 295 297 297 298 301 302 303
308 308 308 312 305 304 299 303 305 302 284 285 292 294 302 303 295 304 308 303 298 294 296 295 296 295 293 293 295 289 292 291 289 288 282 288 280 286 288 290 294 296 297 299 301
307 308 308 310 302 298 300 303 303 298 264 285 291 301 301 296 295 297 308 303 293 293 295 290 292 292 291 292 296 291 294 292 291 287 285 284 283 284 287 288 290 293 296 299 301
306 307 308 304 302 302 305 303 297 281 269 282 293 292 293 295 295 298 299 303 301 295 293 291 295 295 294 296 297 295 291 291 289 286 280 284 283 281 285 289 291 293 294 295 297
306 307 305 304 296 304 304 296 280 273 279 280 286 291 289 290 292 295 293 293 290 286 286 289 291 292 295 291 294 293 288 279 278 279 277 281 282 285 287 291 292 293 294 295 295
306 306 304 300 302 305 299 286 273 272 271 284 286 289 286 288 290 292 291 289 293 291 286 285 283 291 294 292 290 292 288 278 272 274 276 282 279 283 290 292 293 294 294 295 294
305 301 300 301 303 302 289 278 276 274 280 284 285 281 285 288 286 288 288 288 292 294 286 285 285 290 293 294 295 290 287 289 281 272 274 279 281 286 288 290 291 291 292 293 294
296 295 295 302 304 297 284 279 281 285 284 284 277 280 275 284 284 285 285 289 290 294 293 288 281 288 292 294 295 292 293 284 280 270 269 276 278 280 284 288 291 292 292 293 295
294 287 294 301 299 289 279 279 283 287 287 282 279 277 280 281 286 283 283 288 292 292 294 289 286 282 289 289 289 290 288 289 288 280 274 271 276 283 287 288 289 291 292 293 295
288 278 296 298 282 280 274 280 286 284 287 285 283 282 281 283 283 285 284 286 293 293 290 293 289 282 285 286 292 293 290 290 283 278 281 278 279 286 287 288 290 292 293 293 294
284 286 296 290 273 272 272 277 282 281 284 284 283 284 284 282 280 284 284 291 291 292 290 293 286 281 282 287 288 288 290 291 290 284 281 278 281 289 288 288 289 291 292 292 291
284 280 287 288 276 275 270 270 273 285 283 285 285 285 282 280 283 279 286 287 291 292 296 295 288 284 279 282 286 286 288 290 289 284 283 283 285 287 286 288 289 290 290 291 291
280 275 283 279 277 273 278 281 273 276 284 286 284 283 282 278 280 280 284 287 289 292 292 291 284 285 287 287 286 287 288 289 288 288 284 287 286 290 292 290 290 290 290 290 290
280 282 280 273 282 278 280 278 279 281 283 281 281 283 282 275 282 279 283 284 285 288 288 289 283 285 284 288 286 284 288 289 289 289 289 289 288 295 296 294 291 293 292 291 292
285 286 283 283 281 278 278 278 281 283 284 285 284 283 282 283 286 287 288 288 288 286 286 285 282 278 277 283 284 281 286 287 288 291 291 286 291 296 294 291 291 292 291 293 293
Wind_Speed
15 12 12 11 12 10 9 10 9 7 6 5 2 2 5 7 7 2 3 4 2 9 7 6 3 4 3 3 3 2 4 1 4 6 3 4 5 2 0 4 2 4 2 2 6
15 12 12 12 10 12 10 9 9 8 7 7 4 1 3 6 3 4 7 6 4 6 5 5 5 8 4 2 2 4 3 6 4 5 4 4 4 7 4 2 3 3 2 4 9
13 12 12 11 11 10 10 7 7 9 7 7 5 2 1 3 3 4 6 4 6 3 1 1 1 2 1 2 1 1 7 3 3 3 5 5 2 4 6 4 7 8 6 9 7
14 12 13 11 10 10 11 10 7 7 9 6 4 3 1 1 5 2 7 6 4 6 4 2 2 3 3 4 1 3 4 5 1 2 3 5 6 3 5 5 2 6 5 9 12
13 14 14 13 11 11 11 8 7 5 7 7 6 6 2 2 7 2 5 6 5 4 5 4 3 5 5 3 2 2 2 4 2 4 1 1 3 4 6 7 2 2 6 11 11
12 12 14 13 10 10 9 7 4 1 3 6 7 6 2 3 3 2 2 3 3 3 3 4 4 3 3 2 4 3 2 2 1 3 3 4 2 1 5 5 4 4 6 8 11
12 11 12 13 12 10 7 8 5 1 2 2 8 4 2 10 2 4 2 1 2 4 3 2 2 3 4 2 2 1 1 3 2 1 4 4 5 9 5 2 7 7 6 7 9
11 13 11 14 13 13 10 8 5 2 1 1 3 3 5 3 5 6 3 1 1 2 2 2 2 3 3 1 4 3 4 2 3 5 4 4 9 4 9 6 10 9 7 7 10
11 12 11 13 14 13 12 9 6 5 2 2 1 3 4 3 4 7 4 2 4 2 1 3 2 2 3 6 2 5 4 3 7 9 3 7 7 8 3 8 12 7 7 8 7
12 9 13 14 16 13 11 8 5 5 3 2 3 1 2 4 3 5 5 3 2 4 3 3 3 3 2 4 9 6 5 5 6 3 3 5 11 8 4 4 9 8 10 8 9
16 14 10 14 15 15 8 6 5 1 3 6 3 3 2 1 3 2 6 4 2 3 5 4 4 13 11 6 2 5 3 5 3 3 3 8 12 16 11 6 9 10 10 10 12
17 16 15 17 16 14 8 5 7 6 3 9 6 5 1 1 3 3 9 7 6 6 6 4 15 6 6 5 3 3 4 4 4 1 3 6 12 14 12 9 15 17 15 13 8
16 18 16 17 19 14 11 7 5 5 2 5 8 7 3 4 4 8 12 5 4 7 11 9 3 11 9 5 7 3 5 3 4 4 1 6 17 13 9 14 12 12 12 10 15
17 20 16 18 11 8 9 7 6 1 1 6 6 9 7 3 5 6 11 5 4 11 8 10 7 7 4 9 7 7 8 7 3 2 5 1 12 8 3 8 7 9 9 14 17
17 21 19 22 9 10 6 7 6 7 3 8 7 2 13 8 8 7 6 3 9 8 8 5 7 10 7 6 7 4 6 8 5 3 3 4 5 4 1 7 6 10 15 15 12
18 21 19 13 3 14 11 9 6 6 10 2 5 10 16 10 4 4 3 2 2 4 1 6 2 7 6 6 14 8 6 6 4 3 7 10 7 5 5 8 6 5 7 7 8
18 21 14 7 6 12 13 7 7 6 5 4 6 11 19 17 11 7 10 13 8 7 10 4 6 3 5 7 2 5 8 2 1 5 10 1 8 17 2 8 7 8 9 7 6
15 22 13 7 4 10 10 5 5 4 7 3 2 8 18 9 22 12 9 11 17 6 5 10 5 13 7 7 6 14 9 7 9 7 5 3 12 8 7 8 8 10 8 7 7
22 8 8 10 15 4 7 8 6 6 8 8 5 4 10 13 7 17 19 8 13 14 9 8 10 2 5 7 13 6 13 7 5 2 2 6 8 9 7 12 10 8 7 8 7
4 3 2 11 14 11 3 3 1 1 5 5 8 5 7 9 9 17 12 12 15 19 6 3 3 4 9 4 9 11 10 4 1 3 5 6 6 8 6 7 12 11 8 5 6
6 4 2 6 3 4 4 2 1 4 6 5 5 3 5 6 11 7 7 10 19 15 21 4 3 3 6 12 17 6 9 5 6 7 6 3 8 9 13 6 7 8 7 7 5
4 5 1 5 3 2 3 8 3 2 3 3 3 9 6 4 5 13 10 11 10 12 21 18 2 8 12 3 8 20 17 18 9 10 9 2 12 3 7 6 7 8 8 4 2
5 5 1 5 4 2 4 3 3 2 4 4 4 5 4 7 9 3 6 10 5 11 12 15 8 10 4 3 2 14 17 18 20 3 15 8 15 4 6 6 6 7 6 4 2
6 5 4 2 0 6 4 2 2 3 4 3 2 1 3 4 1 3 1 2 3 4 12 10 10 14 20 8 6 14 20 21 21 15 21 17 29 12 2 8 8 6 7 6 4
4 2 1 8 5 4 4 1 4 3 4 10 5 9 7 6 4 3 3 3 3 2 7 6 12 16 20 16 6 9 23 24 22 26 18 26 27 25 18 11 7 7 6 5 5
5 5 3 2 7 5 5 4 7 2 2 2 4 2 5 5 8 10 9 5 4 2 5 3 5 11 24 19 23 14 12 16 25 28 26 26 23 25 17 11 9 14 10 9 12
0 2 5 5 4 6 7 11 12 11 8 5 6 3 4 11 8 3 1 2 4 4 4 4 4 5 19 11 11 20 26 18 13 24 24 26 33 27 19 6 9 12 10 15 10
Wind_Direction
244 250 264 274 273 265 271 255 237 233 230 242 240 341 343 339 329 13 268 227 313 339 340 321 10 341 322 81 62 134 61 204 206 157 234 153 170 167 339 119 226 194 204 118 127
256 239 250 258 263 272 271 277 244 226 226 231 237 242 340 341 334 259 263 283 280 7 17 20 352 343 8 38 66 92 119 225 200 184 194 190 193 166 148 158 244 258 191 118 144
252 246 238 246 256 270 268 279 277 231 222 231 223 215 328 349 317 257 330 318 240 253 287 324 357 356 230 349 255 180 184 204 240 193 163 171 206 181 141 222 217 208 191 162 165
250 238 238 240 251 256 257 256 263 258 220 209 195 206 181 11 236 340 352 335 226 157 154 130 85 124 164 190 170 209 246 166 184 216 154 171 138 193 198 225 308 196 149 167 176
256 248 235 232 237 244 242 241 241 250 238 204 177 174 161 125 253 295 9 46 76 118 149 144 145 137 184 193 107 196 257 196 186 153 231 136 209 209 226 247 37 135 160 181 192
269 248 248 235 228 232 231 223 222 259 257 226 186 160 144 210 237 341 266 31 95 97 155 137 186 182 158 196 183 248 223 322 358 183 195 188 233 230 251 182 202 177 208 199 204
247 247 247 246 221 225 223 203 211 291 345 316 204 136 184 227 60 64 105 70 189 145 152 218 135 130 128 155 225 88 223 355 254 241 250 163 267 222 236 159 216 227 219 218 221
245 232 222 241 225 217 213 201 174 123 325 76 151 153 229 235 221 316 351 119 133 153 138 186 183 120 145 138 28 101 52 124 298 169 261 135 250 248 223 203 232 230 228 223 226
239 234 212 220 225 216 208 195 153 132 157 134 116 201 227 359 178 210 171 196 142 120 138 116 115 135 86 121 66 11 166 193 299 206 172 188 251 243 251 203 235 231 239 234 248
227 230 221 200 219 211 199 176 174 77 71 76 59 165 224 224 204 161 154 219 164 130 115 92 67 131 80 151 209 183 191 218 213 216 209 239 259 272 266 204 243 250 243 246 248
245 221 229 197 203 201 157 103 75 216 201 199 180 264 159 243 126 165 136 147 125 136 162 168 175 207 194 181 120 140 182 189 245 246 197 240 255 260 255 247 253 255 252 243 239
232 224 223 206 194 196 139 172 181 165 199 238 252 303 358 239 121 165 142 163 180 179 143 159 232 187 170 190 176 147 171 218 284 281 191 289 262 252 250 232 234 238 243 240 250
224 220 221 205 175 192 178 178 150 138 70 274 204 217 197 173 221 190 169 163 172 175 191 200 193 164 168 167 192 199 197 166 221 331 264 318 279 255 241 230 229 230 233 233 231
222 213 212 201 157 156 173 168 139 159 133 242 200 231 158 200 236 190 196 149 198 197 160 230 212 156 154 208 163 224 172 174 192 75 244 40 284 269 279 263 222 238 229 236 234
216 214 209 194 133 163 154 159 103 67 99 215 177 194 158 196 142 224 186 196 174 175 164 209 168 168 193 193 162 245 166 178 167 175 337 213 277 260 11 277 268 243 237 236 241
207 204 211 205 121 174 155 117 73 144 226 175 136 162 166 186 139 109 149 119 150 176 280 203 201 187 194 156 176 150 92 59 64 107 263 228 188 206 188 210 250 266 270 260 260
206 199 169 146 154 161 137 141 155 181 298 194 172 171 188 190 163 172 175 186 183 179 199 168 198 193 145 112 85 159 132 128 262 204 236 300 192 252 238 233 229 255 264 259 268
186 188 179 148 168 166 147 174 173 181 184 210 181 170 193 176 206 185 178 195 211 183 155 203 202 184 179 175 167 197 172 163 200 197 263 115 231 249 238 277 253 255 252 266 262
180 197 166 164 170 183 147 198 161 178 166 142 80 159 197 196 167 207 223 204 199 203 191 198 232 95 206 157 153 166 218 180 104 69 45 228 290 287 257 266 268 275 268 259 246
100 66 73 138 158 154 176 168 144 211 116 82 150 164 184 190 187 189 196 220 219 196 198 223 271 195 190 133 208 185 142 160 154 174 251 262 271 235 279 246 242 259 262 284 245
110 101 39 129 81 148 192 108 194 251 74 121 174 100 204 180 205 199 211 222 208 196 193 169 195 284 130 197 189 167 190 186 180 170 193 263 258 218 234 227 243 268 267 265 273
95 76 93 105 58 57 120 154 107 352 94 56 81 188 180 170 220 216 227 206 201 182 193 204 255 218 210 282 236 213 199 190 195 213 236 253 254 250 226 227 206 261 259 280 258
89 102 335 86 135 259 335 48 85 78 63 131 199 190 194 214 227 173 208 244 238 185 201 185 212 228 216 244 280 212 215 212 223 65 213 207 258 230 194 237 235 261 291 290 281
105 120 124 108 174 119 101 280 247 190 205 152 341 178 77 357 306 223 234 321 10 272 242 180 221 230 234 230 154 204 211 214 210 221 233 224 255 227 184 234 252 251 257 261 230
38 182 189 166 204 107 125 185 165 198 199 187 218 201 182 207 226 273 239 264 258 262 333 283 248 228 247 253 260 225 215 214 218 224 221 234 242 248 229 231 227 231 246 249 276
121 136 43 105 127 130 192 220 172 117 160 203 229 299 176 191 202 223 223 184 219 120 211 236 253 235 247 242 234 230 214 234 230 230 237 246 250 251 251 234 227 236 246 248 239
171 45 99 118 124 152 215 205 205 157 205 213 220 208 225 230 231 303 233 171 166 165 156 282 272 262 271 279 275 244 221 221 241 238 236 237 241 254 260 229 229 238 217 240 242